Terminal Aerodrome Forecast
Issued by NWS Knoxville/Tri Cities, TN

Home | Current Version | Previous Version | Text Only | Print | Product List | Glossary On
Versions: 1 2 3 4 5 6 7 8 9 10 11 12
000
FTUS44 KMRX 201134
TAFTRI
TAF
KTRI 201134Z 2012/2112 VRB03KT P6SM SCT250
     FM210600 00000KT P6SM BKN250=

USA.gov is the U.S. government's official web portal to all federal, state and local government web resources and services.